GFSMW_250_spd_156.txt.gz
Wind_Speed
72 73 71 69 66 64 63 54 55 55 52 51 55 55 53 60 65 68 70 73 74 75 76 79 79 79 75 74 76 75 75 74 73 71 67 58 56 58 50 53 48 45 40
74 76 74 71 67 70 66 61 61 59 60 61 61 60 60 63 63 64 66 71 76 77 79 80 82 85 86 85 84 84 83 82 83 78 74 65 59 57 61 60 54 51 46
78 79 76 73 69 68 68 65 64 65 67 70 69 70 70 70 70 71 73 71 73 78 83 88 90 92 93 92 93 94 90 86 89 89 85 78 61 68 63 61 56 56 52
80 78 76 74 72 71 68 69 70 71 73 75 76 76 77 78 76 77 76 78 81 82 85 90 94 98 102 104 97 99 99 98 96 95 93 88 80 75 66 66 62 55 57
78 78 80 77 75 75 76 76 78 77 78 79 82 83 82 80 77 80 81 81 82 83 87 90 93 98 102 102 99 97 92 99 99 102 100 97 92 85 76 71 68 63 62
81 80 78 77 77 80 82 83 85 84 85 86 87 87 85 83 79 77 81 85 85 86 89 92 95 96 95 97 100 93 89 88 94 105 108 104 101 97 91 78 79 72 67
85 84 81 80 80 82 85 88 88 92 89 90 90 89 87 86 84 85 85 87 89 91 90 91 92 90 86 90 88 84 81 80 82 98 109 111 107 106 100 90 92 84 80
89 88 87 86 85 88 92 92 93 95 95 92 87 86 87 88 87 88 87 88 91 92 92 90 88 86 80 78 76 77 77 77 78 84 97 113 113 112 111 104 97 91 89
89 89 90 90 92 93 96 97 97 95 93 90 88 88 89 89 91 89 89 88 88 88 83 78 75 74 72 70 65 65 68 70 71 78 85 97 115 119 117 114 104 100 93
94 96 96 97 97 99 98 97 97 95 94 92 92 92 93 91 90 89 86 83 80 77 73 69 66 66 61 60 55 57 60 62 68 73 82 91 102 114 122 118 114 112 99
97 100 102 103 103 100 99 97 97 97 95 96 95 94 91 89 88 85 82 76 71 70 63 60 58 56 54 52 51 52 53 58 63 68 73 84 93 103 120 128 120 118 110
103 105 107 108 103 98 93 93 94 95 96 95 93 90 88 86 83 80 76 69 65 62 58 54 51 50 49 49 48 48 50 52 59 64 70 75 84 96 103 127 128 123 114
105 105 103 101 96 92 88 88 88 90 90 88 87 85 84 83 79 73 67 65 61 60 57 52 47 45 45 47 48 45 47 49 56 59 65 72 78 89 97 105 131 129 125
105 98 90 90 88 85 81 82 85 84 82 81 81 82 80 77 71 67 66 63 61 59 53 48 45 44 43 44 46 46 45 49 54 60 60 65 74 79 88 99 113 131 128
73 71 72 75 75 75 75 77 74 75 76 78 78 78 74 69 67 66 66 64 60 55 47 45 44 43 43 42 41 40 39 41 47 54 55 60 67 75 82 94 104 118 134
59 60 60 63 66 66 64 66 70 73 75 77 75 70 67 67 66 64 61 58 55 49 44 43 42 42 42 40 36 38 37 36 41 47 50 54 61 69 76 88 101 106 126
50 51 53 54 55 56 61 65 69 72 72 71 69 69 67 63 59 56 53 50 46 43 41 40 40 40 39 38 35 35 33 37 33 41 44 50 54 60 68 80 96 103 118
42 43 47 47 51 58 62 66 67 67 67 69 70 67 61 57 54 49 46 41 39 37 38 37 36 37 37 36 34 33 34 37 33 36 41 44 47 52 63 75 90 100 110
36 39 42 49 55 59 61 62 65 66 69 68 64 61 57 52 48 43 39 35 32 31 34 33 33 33 34 34 33 33 34 33 32 34 39 42 42 46 57 70 81 93 103
33 40 49 53 55 56 60 63 66 66 63 61 57 53 49 45 40 36 32 29 26 27 29 30 31 32 32 33 31 32 28 27 31 32 36 39 37 43 55 65 74 88 99
42 45 47 50 55 58 61 63 60 58 55 50 47 43 40 36 31 28 25 24 24 25 27 28 29 29 31 33 31 30 29 27 27 30 34 37 38 42 51 61 72 84 100
39 43 49 54 57 59 57 54 53 49 44 40 38 35 32 28 24 22 22 21 22 23 24 26 26 28 29 32 33 32 29 28 28 27 29 36 36 40 50 58 68 82 95
43 49 53 54 54 52 51 50 43 39 36 33 29 27 26 23 20 19 19 19 20 20 22 23 24 25 27 31 33 34 31 29 29 29 30 29 38 39 46 54 62 74 86
49 50 51 48 49 49 43 37 33 30 28 26 23 23 22 20 18 17 17 18 19 20 20 22 23 23 25 30 34 37 36 33 32 33 34 35 35 39 44 52 59 68 81
47 47 45 45 44 38 33 29 26 23 21 21 20 20 20 19 18 17 16 16 18 18 20 22 23 23 24 27 32 37 40 38 38 36 36 36 38 38 46 50 59 65 74
45 42 39 39 35 31 27 24 21 21 20 19 20 21 21 20 20 19 17 16 16 16 18 19 22 23 24 25 30 35 39 43 42 43 42 40 40 42 43 52 56 67 72

GFSMW_250_spd_159.txt.gz
Wind_Speed
72 71 73 76 75 72 72 69 72 65 64 62 63 63 60 59 58 57 56 57 57 56 58 69 76 76 78 81 80 80 77 77 79 78 80 80 78 74 68 67 59 58 56
70 71 71 70 71 72 72 75 73 67 68 67 70 65 66 62 59 60 65 64 64 63 63 63 68 73 81 84 85 88 88 87 88 87 87 83 84 81 81 73 70 65 63
80 81 76 75 75 75 75 76 75 72 69 70 71 72 69 69 69 71 70 69 72 72 70 70 70 74 79 81 88 93 96 94 96 96 94 93 89 88 85 83 74 70 67
86 82 80 78 76 77 77 77 76 74 75 76 74 74 78 79 80 80 79 78 78 79 79 75 72 74 78 84 89 91 96 100 103 103 106 99 96 95 92 90 81 71 68
88 87 86 83 82 82 81 82 81 81 81 80 78 78 81 82 85 86 87 87 85 83 82 81 78 77 77 79 85 92 99 103 101 105 111 107 104 99 99 96 89 79 72
89 88 90 89 88 86 82 84 86 85 86 86 84 82 82 86 90 90 90 90 88 86 83 84 84 81 83 85 88 93 98 103 103 102 105 107 107 107 103 100 98 93 77
94 94 92 91 88 88 89 89 89 89 89 88 88 89 91 93 93 95 95 91 90 88 84 85 86 86 87 87 89 91 96 96 99 99 95 93 93 106 114 108 104 103 98
93 94 95 94 94 96 94 90 87 87 89 90 93 96 95 97 98 97 96 94 92 91 91 91 91 89 87 87 87 87 84 80 86 86 86 86 85 92 106 114 109 106 102
93 97 99 95 93 92 91 91 91 92 94 95 96 100 101 101 100 98 98 97 95 94 93 94 91 89 84 82 80 77 72 73 71 73 71 74 78 81 95 108 112 111 104
94 95 96 90 89 93 93 93 94 96 96 99 104 105 106 104 102 100 99 97 95 94 92 88 85 80 77 76 73 70 68 67 65 64 65 66 71 75 80 96 108 110 109
92 90 86 87 91 94 94 95 99 100 102 107 109 104 103 102 100 98 94 93 92 90 86 82 77 74 71 69 66 65 63 60 58 57 59 62 66 71 75 84 98 108 116
88 89 90 91 93 95 97 101 104 108 109 108 106 108 97 91 87 89 90 90 88 82 79 75 72 68 67 65 60 60 56 53 52 51 52 56 60 66 73 78 89 99 114
92 94 97 99 101 101 102 104 105 104 105 105 99 91 84 82 83 85 85 83 79 74 70 68 68 67 64 62 56 54 51 49 48 46 49 53 56 59 66 74 83 94 104
88 90 94 93 93 96 94 95 98 96 88 81 77 77 78 79 80 80 78 74 70 68 67 66 65 63 60 58 53 49 49 46 46 46 47 50 54 57 63 69 77 89 99
68 72 77 80 82 82 85 77 75 71 69 69 70 72 75 76 76 72 71 70 68 66 64 61 59 56 53 50 48 46 45 45 44 43 44 47 51 54 57 62 68 77 91
58 57 56 57 60 63 64 61 61 61 63 65 68 72 72 70 69 70 69 66 63 59 57 54 50 48 45 45 43 42 42 42 42 40 43 47 51 52 55 58 64 69 79
48 49 51 52 52 55 53 55 54 57 61 66 66 65 66 68 68 65 61 59 54 51 48 44 41 40 40 40 39 39 39 40 40 40 40 43 44 46 51 56 59 64 69
40 41 41 41 42 44 46 49 53 58 61 60 61 64 66 64 61 58 54 49 44 40 37 34 33 34 35 36 36 37 36 36 37 38 39 38 41 42 47 52 53 58 64
30 31 32 35 38 40 45 51 55 56 57 61 63 62 60 58 52 48 45 42 36 32 29 28 29 29 29 31 32 33 33 34 36 38 38 35 38 40 46 46 46 51 55
25 25 27 32 38 45 49 51 53 57 58 60 58 56 52 49 45 41 37 33 28 25 25 25 26 26 27 28 29 30 32 33 35 35 36 37 38 40 43 42 42 46 49
20 26 32 38 43 45 48 52 55 56 54 53 50 45 43 41 38 34 29 25 23 22 22 22 23 24 26 27 28 30 31 32 33 36 37 37 38 40 40 41 40 42 46
27 32 35 39 44 47 50 52 50 48 47 43 39 37 35 32 28 25 22 20 19 19 19 20 21 23 24 26 27 29 32 32 33 34 32 32 36 38 38 36 37 38 42
28 34 39 43 47 48 46 44 43 41 37 34 32 30 28 25 23 21 19 18 18 17 16 17 19 21 22 24 27 29 32 34 35 36 34 33 34 34 34 36 37 38 40
35 40 43 44 44 41 39 40 38 34 30 28 25 24 23 22 20 19 19 18 18 19 19 19 20 21 22 23 23 26 31 36 39 39 40 39 37 36 42 37 35 38 41
40 42 42 40 38 36 36 33 30 27 25 24 24 23 23 21 20 18 18 17 17 18 19 20 22 23 25 26 26 27 30 35 39 43 45 46 44 44 43 43 47 42 42
41 41 38 35 33 32 29 27 25 24 25 25 25 23 24 24 23 22 22 21 21 20 19 19 20 22 24 26 28 29 31 33 38 43 47 49 49 49 50 49 46 48 48

GFSMW_250_spd_162.txt.gz
Wind_Speed
70 71 73 74 75 74 73 70 69 67 66 67 70 71 70 71 70 69 66 62 63 65 62 60 61 64 68 67 67 71 74 79 81 79 78 79 79 80 79 81 78 71 65
77 80 79 76 77 78 79 79 78 76 76 74 73 72 72 73 72 69 67 68 70 71 65 64 63 61 61 67 71 75 76 80 82 84 85 86 87 83 82 85 85 81 74
84 85 87 85 83 83 84 83 82 81 78 77 79 77 75 75 75 75 77 78 78 73 71 72 75 74 72 71 70 74 81 84 86 86 88 90 93 95 92 88 89 89 85
83 82 88 87 88 88 87 87 84 82 81 81 83 82 81 77 79 80 81 83 83 81 80 82 81 81 82 80 78 77 77 83 91 93 93 91 94 99 99 97 94 96 92
83 85 88 90 90 91 91 90 89 88 88 86 84 84 81 83 85 87 87 88 88 88 85 85 87 90 89 85 82 82 81 79 86 91 95 100 97 98 101 107 106 99 98
85 88 89 89 89 89 90 90 90 91 87 86 89 91 90 90 91 91 89 87 87 87 90 94 95 95 93 89 86 85 84 84 83 88 94 97 101 106 102 102 112 109 103
98 94 94 94 93 93 96 99 100 98 96 92 95 94 94 92 93 88 87 89 92 93 95 96 99 100 96 91 87 85 86 85 86 88 91 97 101 102 106 100 102 109 108
108 105 109 109 106 105 106 107 104 97 94 92 94 96 96 91 94 93 92 94 96 98 100 106 106 103 98 93 89 87 85 86 89 90 92 92 96 102 98 100 95 99 105
102 102 104 103 104 104 103 98 95 92 94 97 97 98 95 94 96 96 97 97 102 105 109 112 108 103 98 92 88 85 85 85 84 83 80 79 82 80 83 88 89 86 94
89 92 91 90 89 88 89 89 90 92 95 98 100 99 97 95 96 99 101 105 109 113 111 107 106 95 91 85 83 82 80 78 76 77 74 68 71 67 66 71 75 73 78
90 93 90 88 86 86 87 86 88 89 90 91 91 91 94 98 101 104 107 111 112 109 106 95 89 85 83 80 78 77 77 76 73 70 68 62 63 61 59 59 65 69 71
87 87 84 84 87 88 86 87 88 89 90 91 92 95 99 101 103 108 112 109 104 98 93 88 81 78 75 75 75 74 73 71 66 63 63 58 58 57 55 55 59 62 69
82 79 80 81 82 83 85 88 91 91 93 95 97 99 102 106 104 102 101 97 91 87 81 76 76 75 74 71 69 67 66 64 61 60 59 54 55 52 51 53 57 58 65
73 69 66 67 67 71 77 82 84 86 87 89 88 90 91 92 92 88 85 83 80 75 75 73 72 70 69 66 63 60 59 57 56 55 55 51 51 49 48 51 54 58 61
60 58 57 56 56 59 62 63 64 66 67 68 69 72 74 75 76 76 75 72 72 71 71 68 66 63 60 57 55 52 50 48 48 50 49 47 46 46 47 48 51 55 61
46 45 46 47 48 48 49 50 50 51 54 57 60 62 65 67 68 68 67 68 67 66 62 60 57 53 51 49 46 44 42 41 43 44 43 43 43 44 46 48 49 53 57
41 42 41 39 38 38 40 41 42 45 48 51 54 57 60 60 62 65 65 61 59 58 54 50 47 44 42 40 39 37 37 37 38 38 40 40 41 44 46 47 50 52 54
35 33 31 32 34 34 35 38 40 43 46 48 51 52 55 59 62 63 59 54 50 46 42 39 36 33 31 31 31 32 32 33 34 35 38 38 39 43 46 50 49 50 54
26 26 27 27 28 30 33 35 38 42 45 46 50 53 57 57 58 58 53 43 40 37 35 32 29 27 26 26 27 28 30 31 32 34 36 38 41 42 45 48 47 49 53
18 18 19 22 26 29 33 37 39 42 46 50 52 53 52 52 48 44 42 40 33 31 29 28 25 23 23 24 26 27 27 28 30 32 35 40 42 43 44 44 43 45 50
15 20 22 25 29 32 36 40 44 47 49 49 47 47 44 41 37 35 33 30 28 27 25 23 23 23 23 25 26 27 28 29 30 33 36 39 42 44 45 44 44 44 47
18 18 22 27 33 38 42 43 44 43 42 42 42 39 36 34 29 29 27 26 22 21 21 21 21 21 23 24 25 26 28 31 32 34 38 41 44 44 45 44 45 46 48
16 21 28 33 38 40 40 38 37 37 38 35 34 31 30 27 29 27 27 25 22 20 20 19 20 22 23 25 25 26 27 30 33 36 39 42 46 47 46 46 49 50 52
21 27 34 37 39 36 33 32 32 32 30 27 25 25 25 26 26 26 25 25 25 24 24 25 25 25 26 26 27 28 28 29 31 34 38 43 45 47 49 50 48 47 52
27 32 36 37 32 32 30 28 27 27 25 23 23 24 25 24 24 25 26 26 26 26 26 26 26 26 27 28 29 30 31 31 33 34 38 42 47 51 52 55 55 53 52
29 32 33 33 31 29 26 25 25 24 23 23 24 24 24 25 28 30 31 31 31 31 31 31 31 31 31 31 31 32 33 35 37 39 40 43 46 50 54 58 59 61 60

GFSMW_250_spd_165.txt.gz
Wind_Speed
69 74 76 73 76 81 82 81 81 80 77 76 78 78 77 75 75 75 74 71 68 71 72 68 66 67 64 65 65 66 71 73 71 69 71 78 79 77 77 76 76 80 81
69 73 80 84 83 84 84 82 83 85 85 85 84 82 79 78 75 75 72 71 72 73 73 72 70 70 71 74 72 70 68 75 75 77 78 76 80 84 86 84 84 83 84
74 77 81 82 85 86 86 86 86 86 85 85 85 85 83 82 81 79 77 78 75 77 76 76 76 76 77 77 78 78 76 74 78 75 75 84 82 85 87 91 92 91 90
80 80 80 81 85 89 90 89 87 87 87 87 89 89 87 87 86 83 82 84 81 81 85 82 80 80 83 84 85 84 83 81 81 83 80 81 85 92 90 94 93 97 96
86 91 94 95 97 96 95 92 89 90 90 90 92 93 93 93 91 88 90 92 93 84 88 88 89 87 85 84 83 83 83 85 87 87 87 86 87 89 95 97 101 94 99
103 107 106 103 103 104 102 103 101 102 98 97 97 98 98 97 97 99 96 96 97 90 87 90 89 89 89 88 86 85 86 88 89 90 94 90 90 93 93 92 104 110 99
106 106 109 111 109 104 106 106 106 105 105 102 102 101 102 102 101 102 102 100 96 93 95 95 96 95 93 92 90 89 90 92 95 98 97 91 89 91 94 96 94 101 114
117 125 105 97 94 85 85 87 88 93 94 96 96 98 98 99 99 98 99 95 94 94 96 97 99 100 99 96 95 96 96 98 102 101 92 91 90 90 92 94 95 96 100
118 105 93 86 85 79 81 82 80 85 89 90 91 93 95 94 93 95 96 94 96 98 100 100 101 99 97 98 98 99 102 102 98 93 85 82 83 85 86 89 91 93 95
106 98 89 84 84 82 83 82 84 86 87 88 89 88 88 89 89 90 92 94 98 99 99 96 95 97 99 100 103 104 101 94 89 83 79 77 78 79 81 82 80 83 85
94 90 87 85 85 85 87 87 86 86 87 88 89 90 87 85 85 87 90 92 95 96 97 99 99 100 102 106 100 95 90 85 80 79 77 76 75 75 74 72 70 69 67
86 83 83 83 83 84 81 80 79 76 75 79 81 82 82 86 87 88 91 94 97 99 100 101 99 97 96 92 86 84 81 80 79 76 74 72 70 69 67 63 59 59 58
81 80 79 76 73 70 69 68 68 67 66 70 73 75 80 80 82 85 88 90 91 91 89 88 85 82 80 80 79 77 74 71 69 66 64 62 60 59 57 52 55 50 50
76 73 68 63 61 59 57 57 57 57 59 62 63 63 65 67 70 73 74 73 71 71 71 73 73 74 73 70 68 65 63 61 59 57 54 53 53 53 49 47 49 48 48
64 59 57 53 52 50 50 48 47 46 47 49 52 54 55 55 55 58 60 61 62 64 65 65 66 66 63 60 58 55 53 51 49 48 46 46 46 45 44 46 45 47 46
51 48 47 42 40 37 36 35 35 36 38 39 41 44 46 48 50 54 56 57 57 58 58 58 56 53 50 48 45 44 42 40 40 39 38 39 40 40 40 41 41 42 44
40 37 37 34 32 31 30 30 31 32 33 35 37 40 41 44 48 51 57 56 53 51 51 48 45 44 42 39 36 33 33 32 32 32 32 34 33 35 36 37 38 41 42
31 31 30 29 29 27 27 27 28 30 32 34 36 39 41 44 48 52 54 56 54 45 37 39 38 35 33 30 28 27 27 27 28 29 29 30 30 32 34 36 38 41 43
28 25 23 22 22 22 23 25 28 31 33 34 37 41 44 47 49 49 49 49 46 45 41 35 32 30 28 26 24 25 25 26 27 28 29 30 32 32 34 37 39 42 45
23 22 19 19 21 22 24 26 29 34 37 39 41 43 45 45 45 45 41 39 38 39 40 39 34 30 27 25 24 24 24 26 26 27 29 30 33 35 36 39 42 45 47
21 19 18 19 19 22 29 34 37 38 38 39 39 39 40 41 39 34 32 31 32 31 32 32 31 28 26 25 25 25 26 27 29 29 29 30 33 37 39 42 46 48 49
14 16 16 17 24 30 35 37 35 34 33 33 34 34 33 31 29 29 28 29 28 28 27 26 24 25 24 24 25 26 27 27 27 29 32 33 34 36 41 44 48 51 54
12 13 17 24 29 33 32 31 29 28 27 26 27 28 26 26 27 29 29 30 28 28 27 26 26 26 27 27 28 29 29 29 30 31 31 34 37 40 43 48 51 55 56
13 15 22 27 31 30 25 26 25 24 23 23 23 23 25 28 29 29 28 28 30 31 30 30 30 30 30 30 30 30 30 31 32 33 34 35 36 40 45 49 53 56 59
15 18 24 25 24 24 23 22 21 21 21 21 22 22 23 24 25 26 28 30 31 30 31 31 31 33 33 33 33 33 33 33 34 34 36 38 40 42 43 47 51 56 60
16 21 25 22 21 23 24 25 23 22 21 22 23 25 25 26 27 28 29 30 30 31 31 32 32 34 33 32 33 33 34 35 35 37 39 40 43 45 47 50 52 55 58